[[{"header":{"parameterUnit":"m.s-1","parameterCategory":1,"la1":30.2991,"la2":30.254,"lo1":-89.0895,"lo2":-89.0444,"dy":0.0017,"dx":0.0017,"nx":28,"ny":28,"refTime":"2024-04-08T09:00:00:Z","depth":0,"parameterNumber":2,"parameterNumberName":"U-component_of_WINDS"},"data":[0,0,0,0,0,0,0,0,0,0,0,0,0,0,0,0,0,0,0,0,0,0,0,0,0,0,0,0,0,0,0,0,0,0,0,0,0,0,0,0,0,0,0,0,0,0,0,0,0,0,0,0,0,0,0,0,0,0,-2.4752,-2.4753,0,-2.4825,-2.4826,-2.4826,-2.4843,-2.4843,-2.4842,-2.4842,-2.4915,-2.4917,-2.492,0,0,0,0,0,0,0,0,0,0,0,0,0,-2.4628,-2.463,-2.4752,-2.4753,-2.4754,-2.4825,-2.4826,-2.4827,-2.4843,-2.4843,-2.4842,-2.4842,-2.4914,-2.4917,-2.492,0,0,0,0,0,0,0,0,0,0,0,0,0,-2.4689,-2.463,-2.4752,-2.4771,-2.4773,-2.4824,-2.4826,-2.4827,-2.4844,-2.4843,-2.4842,-2.4841,-2.4913,-2.4917,-2.492,-2.4957,0,0,-2.4931,-2.4933,0,0,0,0,0,0,0,0,-2.4685,-2.4693,-2.4767,-2.477,-2.4773,-2.4824,-2.4808,-2.4871,-2.4844,-2.4817,-2.4842,-2.4841,-2.4885,-2.4891,-2.4906,-2.4961,-2.4964,-2.4932,-2.4934,-2.4935,-2.4936,0,0,0,0,0,0,0,-2.4681,-2.469,-2.4781,-2.4768,-2.4772,-2.4776,-2.4783,-2.482,-2.4854,-2.4819,-2.4821,-2.4829,-2.4887,-2.4903,-2.4908,-2.4965,-2.4932,-2.4935,-2.4937,-2.4938,-2.5053,-2.5053,0,0,0,0,0,0,-2.4674,-2.4687,-2.4779,-2.4783,-2.4726,-2.4778,-2.4787,-2.4808,-2.4854,-2.486,-2.483,-2.4829,-2.4897,-2.4904,-2.4911,-2.4956,-2.4935,-2.4939,-2.4941,-2.5052,-2.5053,-2.5054,0,0,0,0,0,0,-2.4671,-2.4682,-2.4776,-2.4735,-2.4748,-2.4781,-2.4805,-2.481,-2.4826,-2.4862,-2.4868,-2.484,-2.4897,-2.4906,-2.4946,-2.4959,-2.494,-2.4944,-2.5051,-2.5052,-2.5053,-2.5048,0,0,0,0,0,0,-2.4667,-2.4681,-2.4695,-2.4736,-2.475,-2.4809,-2.4806,-2.4812,-2.4833,-2.4833,-2.4873,-2.4879,-2.4897,-2.494,-2.4949,-2.4964,-2.4947,-2.505,-2.5051,-2.5053,-2.5047,-2.5049,-2.505,0,0,0,0,0,-2.4663,-2.4691,-2.4696,-2.4707,-2.4769,-2.481,-2.4818,-2.4838,-2.4834,-2.4848,-2.4871,-2.4878,-2.4956,-2.4944,-2.4954,-2.497,-2.5049,-2.5051,-2.5053,-2.5046,-2.5048,-2.505,0,0,0,0,0,0,-2.4651,-2.4697,-2.4703,-2.4745,-2.4773,-2.4813,-2.4832,-2.484,-2.4871,-2.487,-2.4894,-2.4903,-2.4941,-2.496,-2.4945,-2.5008,-2.5002,-2.5007,-2.4994,-2.4996,-2.4998,-2.4992,-2.495,0,0,0,0,0,-2.4653,-2.4684,-2.4722,-2.4755,-2.4769,-2.4798,-2.4817,-2.483,-2.4861,-2.4873,-2.4899,-2.4928,-2.4959,-2.4979,-2.501,-2.505,-2.5059,-2.5066,-2.5068,-2.5069,-2.5072,-2.5094,-2.5098,-2.506,-2.506,-2.506,0,0,-2.4658,-2.4687,-2.4705,-2.4753,-2.4777,-2.4807,-2.4808,-2.484,-2.4863,-2.4878,-2.4916,-2.4936,-2.4971,-2.5011,-2.5029,-2.5028,-2.5085,-2.5072,-2.5073,-2.5075,-2.5096,-2.51,-2.5103,-2.5061,-2.5061,-2.5061,0,0,-2.4683,-2.4708,-2.4738,-2.4762,-2.4798,-2.4817,-2.4824,-2.4863,-2.4876,-2.4916,-2.4928,-2.4955,-2.5008,-2.5032,-2.5051,-2.5084,-2.5091,-2.5094,-2.5102,-2.5123,-2.5126,-2.5129,-2.514,-2.5143,-2.5097,-2.5097,-2.5097,0,-2.4684,-2.473,-2.4752,-2.4784,-2.4804,-2.482,-2.485,-2.4872,-2.4916,-2.493,-2.4928,-2.4995,-2.5019,-2.5064,-2.5072,-2.5088,-2.5096,-2.5088,-2.5124,-2.5127,-2.513,-2.514,-2.5144,-2.5097,-2.5097,-2.5097,-2.5097,0,-2.473,-2.4762,-2.4782,-2.4824,-2.4847,-2.4878,-2.4904,-2.4925,-2.4936,-2.4955,-2.4995,-2.5025,-2.5061,-2.5073,-2.5085,-2.512,-2.5118,-2.5119,-2.5114,-2.5133,-2.5143,-2.5148,-2.5097,-2.5097,-2.5097,-2.5097,0,0,-2.4748,-2.4802,-2.4809,-2.4828,-2.4869,-2.4894,-2.4925,-2.4961,-2.4978,-2.5008,-2.5034,-2.5079,-2.5081,-2.5103,-2.5117,-2.5136,-2.5159,-2.5135,-2.5136,-2.5138,-2.5199,-2.5196,-2.5201,-2.5164,-2.5165,-2.5166,-2.5195,0,-2.4776,-2.4833,-2.4853,-2.4899,-2.4928,-2.4943,-2.4971,-2.4998,-2.5017,-2.5045,-2.5066,-2.5097,-2.5097,-2.511,-2.5129,-2.5152,-2.5171,-2.515,-2.5188,-2.5189,-2.5178,-2.5206,-2.5204,-2.523,-2.52,-2.52,-2.5201,0,-2.4817,-2.4847,-2.4896,-2.4933,-2.4946,-2.497,-2.5004,-2.503,-2.5062,-2.5075,-2.5099,-2.5112,-2.5145,-2.5138,-2.5183,-2.5168,-2.5185,-2.5199,-2.52,-2.5203,-2.5195,-2.5209,-2.5239,-2.5243,-2.5208,-2.5207,-2.5207,0,-2.4823,-2.4877,-2.4913,-2.4929,-2.4973,-2.4989,-2.5008,-2.504,-2.506,-2.509,-2.5103,-2.5137,-2.5155,-2.5181,-2.5202,-2.5196,-2.5245,-2.5241,-2.5256,-2.5255,-2.5264,-2.5263,-2.5296,-2.5277,-2.5277,-2.5277,-2.5277,0,-2.4852,-2.4881,-2.4916,-2.4938,-2.4971,-2.4994,-2.5026,-2.5046,-2.5074,-2.51,-2.5115,-2.5139,-2.5167,-2.5194,-2.5211,-2.5245,-2.5254,-2.5264,-2.5268,-2.5262,-2.5261,-2.5273,-2.5271,-2.5278,-2.5278,-2.5278,-2.5277,0,-2.4865,-2.489,-2.4929,-2.4968,-2.4979,-2.5001,-2.5034,-2.5055,-2.5075,-2.5108,-2.5117,-2.5148,-2.5181,-2.5205,-2.5248,-2.5259,-2.5295,-2.53,-2.5284,-2.5286,-2.5299,-2.5297,-2.5341,-2.5347,-2.5324,-2.5324,-2.5325,0,-2.4881,-2.4903,-2.4944,-2.4963,-2.4982,-2.5012,-2.5032,-2.5056,-2.5077,-2.5115,-2.5132,-2.5166,-2.5194,-2.5246,-2.5272,-2.5305,-2.531,-2.5323,-2.5315,-2.5308,-2.5309,-2.5307,-2.5309,-2.5324,-2.5324,-2.5324,-2.5324,0,-2.4906,-2.4917,-2.4947,-2.498,-2.5004,-2.5032,-2.506,-2.5074,-2.5103,-2.5126,-2.5159,-2.5181,-2.5225,-2.5258,-2.5294,-2.5313,-2.5323,-2.5326,-2.5331,-2.5325,-2.5314,-2.5319,-2.5286,-2.5325,-2.5325,-2.5325,-2.5325,-2.5325,-2.4921,-2.4941,-2.4973,-2.5005,-2.5028,-2.5054,-2.5076,-2.5098,-2.5127,-2.5164,-2.5177,-2.5212,-2.5243,-2.5291,-2.5311,-2.5339,-2.5338,-2.5346,-2.5347,-2.5349,-2.5348,-2.5311,-2.5345,-2.5345,-2.5345,-2.5345,-2.5345,0,-2.4946,-2.4967,-2.4996,-2.5035,-2.506,-2.5067,-2.5098,-2.5119,-2.5149,-2.5177,-2.5205,-2.5244,-2.5276,-2.5305,-2.5339,-2.5355,-2.536,-2.5363,-2.5361,-2.5365,-2.5346,-2.5338,-2.5358,-2.5358,-2.5358,-2.5358,-2.5358,-2.5358,-2.4962,-2.4997,-2.5011,-2.5058,-2.5079,-2.5113,-2.513,-2.5154,-2.5176,-2.5219,-2.5246,-2.5264,-2.5293,-2.5329,-2.5359,-2.5366,-2.5377,-2.5379,-2.5387,-2.5369,-2.5367,-2.5365,-2.5358,-2.5381,-2.5381,-2.5404,-2.5404,-2.5404]},{"header":{"parameterUnit":"m.s-1","parameterCategory":1,"la1":30.2991,"la2":30.254,"lo1":-89.0895,"lo2":-89.0444,"dy":0.0017,"dx":0.0017,"nx":28,"ny":28,"refTime":"2024-04-08T09:00:00:Z","depth":0,"parameterNumber":3,"parameterNumberName":"V-component_of_WINDS"},"data":[0,0,0,0,0,0,0,0,0,0,0,0,0,0,0,0,0,0,0,0,0,0,0,0,0,0,0,0,0,0,0,0,0,0,0,0,0,0,0,0,0,0,0,0,0,0,0,0,0,0,0,0,0,0,0,0,0,0,3.728,3.7281,0,3.7405,3.7406,3.7407,3.7415,3.7414,3.7413,3.7411,3.7535,3.7539,3.7544,0,0,0,0,0,0,0,0,0,0,0,0,0,3.7045,3.7049,3.728,3.7281,3.7283,3.7404,3.7406,3.7408,3.7416,3.7414,3.7412,3.7411,3.7533,3.7538,3.7544,0,0,0,0,0,0,0,0,0,0,0,0,0,3.7156,3.7051,3.7279,3.7302,3.7305,3.7404,3.7406,3.7408,3.7416,3.7414,3.7412,3.741,3.7531,3.7538,3.7545,3.7629,0,0,3.7566,3.7569,0,0,0,0,0,0,0,0,3.715,3.7165,3.7297,3.73,3.7304,3.7392,3.7369,3.7482,3.7417,3.7374,3.7411,3.7409,3.7489,3.7499,3.7527,3.7635,3.764,3.7566,3.7571,3.7573,3.7575,0,0,0,0,0,0,0,3.7142,3.7159,3.7329,3.7299,3.7303,3.7304,3.7318,3.739,3.7441,3.7377,3.7378,3.7393,3.749,3.752,3.753,3.7642,3.7566,3.7572,3.7577,3.7579,3.7826,3.7829,0,0,0,0,0,0,3.7131,3.7153,3.7325,3.7333,3.722,3.731,3.7325,3.7366,3.744,3.745,3.7395,3.7393,3.7509,3.7522,3.7534,3.7639,3.7573,3.758,3.7584,3.7824,3.7827,3.7829,0,0,0,0,0,0,3.7126,3.7146,3.732,3.7243,3.7265,3.7316,3.7362,3.737,3.74,3.7454,3.7462,3.7416,3.7508,3.7524,3.7606,3.7643,3.7583,3.7589,3.7821,3.7825,3.7828,3.7847,0,0,0,0,0,0,3.7119,3.7144,3.7177,3.7244,3.727,3.7391,3.7365,3.7374,3.7412,3.7411,3.7476,3.7485,3.7508,3.7596,3.7613,3.7651,3.7595,3.7818,3.7823,3.7827,3.7844,3.7851,3.7858,0,0,0,0,0,3.711,3.7177,3.7179,3.72,3.7312,3.7393,3.7407,3.7434,3.7415,3.7448,3.7483,3.7483,3.7636,3.7604,3.7623,3.7664,3.7816,3.7821,3.7827,3.784,3.785,3.7857,0,0,0,0,0,0,3.7111,3.7186,3.7189,3.7279,3.733,3.7394,3.7437,3.7443,3.7499,3.7495,3.7524,3.7539,3.7619,3.765,3.7613,3.775,3.7724,3.7733,3.7727,3.7737,3.7744,3.7734,3.76,0,0,0,0,0,3.7122,3.7183,3.7244,3.7317,3.7343,3.7386,3.7422,3.7438,3.7491,3.7512,3.7553,3.7603,3.7663,3.7701,3.7759,3.7848,3.7862,3.7886,3.7893,3.7898,3.7906,3.7956,3.7968,3.7848,3.7847,3.7847,0,0,3.7145,3.7193,3.7229,3.7319,3.736,3.7421,3.7403,3.7468,3.7514,3.7521,3.7602,3.7633,3.7691,3.7777,3.7817,3.7805,3.7943,3.7905,3.7909,3.7914,3.7963,3.7974,3.7985,3.7851,3.7851,3.785,0,0,3.7217,3.726,3.7326,3.7368,3.7432,3.746,3.7476,3.754,3.7562,3.7643,3.7651,3.7704,3.7806,3.7848,3.7882,3.7972,3.7974,3.799,3.8027,3.8075,3.8084,3.8093,3.8126,3.8137,3.7998,3.7998,3.7998,0,3.7237,3.7331,3.7359,3.7425,3.7464,3.7476,3.7543,3.7582,3.766,3.7686,3.7672,3.7802,3.7841,3.7938,3.796,3.7987,3.8006,3.7983,3.8081,3.809,3.8098,3.813,3.8142,3.7999,3.7999,3.7999,3.7999,0,3.7352,3.7417,3.7462,3.754,3.7584,3.765,3.7688,3.7729,3.7742,3.7771,3.7854,3.7903,3.7971,3.7995,3.8007,3.8093,3.8084,3.8075,3.8049,3.8111,3.8141,3.8153,3.8002,3.8001,3.8001,3.8,0,0,3.7428,3.7522,3.7538,3.7574,3.7645,3.7695,3.7761,3.783,3.7865,3.7919,3.7975,3.8062,3.8055,3.8094,3.811,3.8153,3.8222,3.8139,3.8141,3.8153,3.8321,3.8327,3.8341,3.8224,3.8226,3.8228,3.8316,0,3.7509,3.7629,3.7657,3.776,3.782,3.7832,3.789,3.7939,3.7969,3.8024,3.8056,3.8117,3.8103,3.8127,3.8169,3.8204,3.8256,3.8198,3.8276,3.8278,3.8261,3.8356,3.8363,3.8444,3.8328,3.833,3.8331,0,3.7619,3.7678,3.7787,3.7851,3.7878,3.7929,3.7995,3.8047,3.8104,3.8122,3.8167,3.818,3.8249,3.8219,3.8314,3.8275,3.8308,3.833,3.8334,3.8342,3.8308,3.8367,3.847,3.8482,3.835,3.8348,3.8347,0,3.7664,3.777,3.7849,3.7879,3.7956,3.7993,3.8026,3.8081,3.812,3.8177,3.8203,3.8267,3.8302,3.835,3.838,3.8355,3.8473,3.8446,3.849,3.8489,3.8514,3.8512,3.8624,3.8535,3.8534,3.8534,3.8534,0,3.7752,3.7818,3.7871,3.792,3.7995,3.8026,3.8099,3.8132,3.8181,3.8235,3.8249,3.83,3.8336,3.8392,3.8415,3.8491,3.8506,3.8522,3.8528,3.8522,3.852,3.8544,3.8539,3.8537,3.8537,3.8536,3.8536,0,3.7815,3.7853,3.7941,3.8007,3.8025,3.8077,3.8134,3.8181,3.8211,3.8281,3.8299,3.8346,3.8413,3.8447,3.8529,3.8545,3.8631,3.8632,3.8612,3.8614,3.8657,3.8653,3.8788,3.8808,3.8705,3.8706,3.8707,0,3.7869,3.7921,3.7993,3.8032,3.8067,3.8128,3.817,3.8202,3.8244,3.8313,3.8352,3.842,3.8476,3.8582,3.8622,3.8686,3.869,3.8733,3.8699,3.8691,3.8691,3.8688,3.8693,3.8739,3.874,3.874,3.8741,0,3.7961,3.7977,3.8037,3.8103,3.8153,3.8206,3.8259,3.8289,3.833,3.8377,3.8446,3.849,3.8575,3.8642,3.8709,3.8742,3.8749,3.8752,3.8765,3.8759,3.8746,3.8755,3.8629,3.8748,3.8747,3.8747,3.8747,3.8746,3.8021,3.8068,3.8127,3.8193,3.8237,3.8286,3.8334,3.8371,3.843,3.8503,3.8519,3.8592,3.8647,3.8738,3.8773,3.8831,3.8821,3.8841,3.8846,3.8851,3.8853,3.8737,3.8843,3.8842,3.8842,3.8842,3.8842,0,3.8114,3.8153,3.8214,3.8288,3.834,3.8343,3.8402,3.8445,3.851,3.8561,3.8617,3.8697,3.8762,3.8809,3.8875,3.8912,3.8916,3.8928,3.8926,3.8934,3.8857,3.8839,3.8923,3.8923,3.8923,3.8923,3.8923,3.8923,3.8169,3.8249,3.8272,3.8374,3.8412,3.8485,3.8518,3.8564,3.8606,3.8695,3.875,3.878,3.883,3.89,3.896,3.8972,3.8996,3.9008,3.902,3.8947,3.8939,3.8931,3.8914,3.9013,3.9013,3.9092,3.9093,3.9093]}]]